STARLINK-3724, 52305

Orbit data source: Space-Track

STARLINK-3724, 52305 is a payload satellite owned by SpaceX/Seattle (US) in LEO that was launched on Thu, 21 Apr 2022 UTC via an FALCON 9 launch vehicle from the Air Force Eastern Test Range (AFETR). Payload-class satellites include a variety of spacecraft equipped with specific instruments for various scientific and technological missions. These include communications satellites like Starlink; space stations such as the ISS; scientific satellites like the Hubble; Earth observation satellites from companies like Planet Labs, Umbra, and HawkEye 360; GPS; miniature CubeSats for education and research; and military/defense satellites.

Loading next visibility...
Identifier
52305, 2022-041AW
Orbit
LEO
Country
Flag of USUS
Related business
Manufacturer
SpaceX/Seattle
Mission
Operational Commercial Communications
Bus & Motor
STARLINK, Unknown motor
Mass
297 kg wet, ~275 kg dry
Launch date (UTC)
2022-04-21 (4 years ago)
Launch vehicle
FALCON 9
Launch site
Air Force Eastern Test Range (AFETR)
Object type
Payload
Rocket body
Debris
Shape & HBR
Box + 1 Pan, 10.1 m
Radar Cross Section
11.087 m², Large (>1 m²)

Expand to show TLE details & history
Last TLE update: 17 hours ago

TLE from 17 hours ago
0 STARLINK-3724
1 52305U 22041AW  26129.87084392  .00000595  00000-0  55495-4 0  9996
2 52305  53.2162 184.5759 0001125  86.7161 273.3960 15.08839351223744
Epoch: 2026-05-09T20:54Z
TLE epoch observation values (Epoch: 2026-05-09T20:54:00.914Z)
Latitude
-0.00002°
Longitude
3.39001°
Altitude
540.597 km
Speed
7.593 km/s
True Right ascension
12h 18m 18s
True Declination
0° 00' 00"
Sunlit
Object was in full shadow at epoch
Visualization orbit readout
Latitude
Unknown
Longitude
Unknown
Altitude
Unknown
Speed
Unknown
Apparent Right ascension
Unknown
Apparent Declination
Unknown
Sunlit
N/A
Visualization observer readout
Local Sidereal Time
22:05:25
Azimuth
Unknown
Elevation
Unknown
Doppler factor
Unknown
Orbital elements
Apogee altitude
540.769 km
Perigee altitude
539.212 km
Semi-major axis
6,918.128 km
Eccentricity
0.00011
Inclination
53.2162°
RAAN
184.5759°
Arg. of periapsis
86.7161°
True anomaly
273.38313°
Mean anomaly
273.396°
Eccentric anomaly
273.38957°
Mean motion
3.7719 °/min
Orbital period
95.44 mins
BSTAR
0.000055495
Loading maneuver chart data...
Computing Atmospheric mass density...
Loading historical data...
Loading historical data...
Loading historical data...
Loading historical data...
Loading historical data...
Loading historical data...
Loading historical data...

Documentation

Showing up to 5 results
|